#timestamp,LO_Frequency,Hit,StdDev 
1634763615.2,286046996.8,N
1634763635.1,286046997.1,N
1634763636.0,286046997.1,N
1634763655.8,286046997.0,N
1634763675.6,286046996.7,N
1634763695.5,286046995.1,Y
1634763715.3,286046996.5,P
1634763735.2,286046998.1,N
1634763755.0,286047001.2,N
1634763755.9,286047001.2,N
1634763775.7,286047000.9,N
1634763795.6,286047000.9,N
1634763815.4,286047000.3,N
1634763835.3,286047002.8,N
1634763855.1,286047002.2,N
1634763856.0,286047002.2,N
1634763875.8,286047002.3,N
1634763895.7,286047002.0,N
1634763915.5,286047002.7,N
1634763935.4,286047000.1,N
1634763955.2,286046998.8,N
1634763975.0,286046999.3,N
1634763975.9,286046999.3,N
1634763995.8,286046998.3,N
1634764015.6,286047000.3,N
1634764035.4,286046998.5,N
1634764055.3,286047000.8,N
1634764075.1,286047000.2,N
1634764095.9,286047002.3,N
1634764115.7,286047002.2,N
1634764135.5,286047002.2,N
1634764155.4,286047002.6,N
1634764175.2,286047002.4,N
1634764195.0,286047000.2,N
1634764195.9,286047000.2,N
1634764215.8,286047002.3,N
1634764235.6,286047000.0,N
1634764255.5,286047002.2,N
1634764275.3,286047002.0,N
1634764295.1,286047002.0,N
1634764315.9,286047002.0,N
1634764335.7,286047004.4,Y
1634764355.5,286047002.6,P
1634764375.4,286047002.3,P
1634764395.2,286047002.8,P
1634764415.1,286047001.9,N
1634764416.0,286047001.9,Y
1634764435.8,286046998.1,P
1634764455.6,286047000.7,N
1634764475.5,286047000.9,N
1634764495.3,286047000.9,N
1634764515.2,286046998.2,N
1634764535.9,286047001.2,N
1634764555.7,286046998.1,N
1634764575.6,286047001.0,N
1634764595.4,286046999.3,N
1634764615.2,286046998.8,N
1634764635.1,286046998.3,N
1634764636.0,286046998.3,N
1634764655.8,286047000.8,N
1634764675.7,286046998.8,N
1634764695.5,286046998.6,N
1634764715.3,286047001.2,N
1634764735.2,286047000.5,N
1634764755.0,286047000.0,N
1634764755.9,286047000.0,N
1634764775.8,286047000.5,N
1634764795.6,286046998.4,N
1634764815.4,286047001.2,N
1634764835.3,286047001.1,N
1634764855.1,286047001.1,N
1634764875.8,286047001.2,N
1634764895.7,286047000.8,N
1634764915.5,286046999.9,N
1634764935.4,286047000.0,N
1634764955.2,286046999.9,N
1634764975.0,286047000.6,N
1634764975.9,286047000.6,N
1634764995.8,286046998.1,N
1634765015.6,286047000.7,N
1634765035.4,286047000.6,N
1634765055.3,286047002.7,N
1634765075.1,286047002.2,N
1634765095.9,286047000.3,N
1634765115.7,286047000.2,N
1634765135.5,286047000.4,N
1634765155.4,286047002.8,N
1634765175.2,286047000.9,N
1634765195.0,286047002.7,N
1634765195.9,286047002.7,N
1634765215.8,286047002.6,N
1634765235.6,286047002.3,N
1634765255.5,286047002.5,N
1634765275.3,286047002.5,N
1634765295.1,286047002.6,N
1634765315.9,286047002.1,N
1634765335.7,286047002.0,N
1634765355.5,286047002.1,N
1634765375.4,286047001.6,N
1634765395.2,286047001.7,N
1634765415.1,286047003.9,Y
1634765416.0,286047003.9,P
1634765435.8,286046999.9,N
1634765455.6,286047002.1,N
1634765475.5,286047001.7,N
1634765495.3,286047001.8,N
1634765515.2,286047001.4,N
1634765535.9,286047003.9,Y
1634765555.7,286047002.8,P
1634765575.6,286046999.8,N
1634765595.5,286047001.0,N
1634765615.3,286047001.2,N
1634765635.1,286047000.7,N
1634765655.9,286046998.2,N
1634765675.7,286047000.7,N
1634765695.5,286047000.8,N
1634765715.4,286046998.5,N
1634765735.2,286046998.9,N
1634765755.1,286047000.7,N
1634765756.0,286047000.7,N
1634765775.8,286046998.6,N
1634765795.6,286046998.8,N
1634765815.5,286046998.8,N
1634765835.3,286046999.2,N
1634765855.2,286046999.1,N
1634765875.9,286046998.4,N
1634765895.7,286046998.8,N
1634765915.6,286046998.6,N
1634765935.4,286046998.1,N
1634765955.3,286046998.7,N
1634765975.1,286046998.2,N
1634765976.0,286046998.2,N
1634765995.8,286047001.1,N
1634766015.7,286047000.7,N
1634766035.5,286046998.6,N
1634766055.4,286046998.9,N
1634766075.2,286046999.0,N
1634766095.0,286046999.3,N
1634766095.9,286046999.3,N
1634766115.8,286046999.3,N
1634766135.6,286046996.7,Y
1634766155.5,286046997.0,P
1634766175.3,286046996.5,N
1634766195.1,286046998.7,N
1634766215.9,286046998.3,N
1634766235.7,286046996.7,Y
1634766285.6,286047000.8,E
1634766295.5,286047000.4,N
1634766315.3,286046998.7,P
1634766335.2,286046998.1,N
1634766355.0,286047000.2,N
1634766355.9,286047000.2,N
1634766375.7,286047000.3,N
1634766395.6,286047002.7,N
1634766415.4,286047002.0,N
1634766435.3,286047002.6,N
1634766455.1,286047002.7,N
1634766456.0,286047002.7,N
1634766475.8,286047002.8,N
1634766495.7,286047002.7,N
1634766515.5,286047002.7,N
1634766535.4,286047002.6,N
1634766555.2,286047000.2,N
1634766575.0,286047002.4,N
1634766575.9,286047002.4,N
1634766595.8,286047001.9,N
1634766615.6,286047001.7,N
1634766635.4,286047002.0,N
1634766655.3,286047001.9,N
1634766675.1,286047001.6,N
1634766695.9,286047002.0,N
1634766715.7,286047002.0,N
1634766735.5,286047002.3,N
1634766755.4,286047002.3,N
1634766775.2,286047002.6,N
1634766795.1,286047002.3,N
1634766796.0,286047002.3,N
1634766815.8,286047000.6,N
1634766835.6,286047002.8,N
1634766855.5,286047000.5,N
1634766875.3,286047000.6,N
1634766895.1,286047001.0,N
1634766915.9,286047001.1,N
1634766935.7,286046998.1,N
1634766955.6,286046998.5,N
1634766975.4,286046998.8,N
1634766995.2,286047000.7,N
1634767015.1,286047000.2,N
1634767016.0,286047000.2,N
1634767035.8,286046999.8,N
1634767055.7,286047000.0,N
1634767075.5,286047002.3,N
1634767095.3,286047000.1,N
1634767115.2,286047002.7,N
1634767135.0,286047000.4,N
1634767135.9,286047000.4,N
1634767155.7,286046999.9,N
1634767175.6,286047002.1,N
1634767195.4,286047002.1,N
